STARLINK-35823

Last updated on Sun Dec 07 2025 00:02:05 GMT+0000 (Coordinated Universal Time)

1 66360U 25254N 25340.58335648 -.00003694 00000+0 -58431-4 0 9993 2 66360 53.1601 305.9866 0001539 90.8655 344.3789 15.49285260 5934
UTC large
Height (km)
Speed (km/s)
/
Latitude / Longitude
Inclination (degrees)
Orbital Period (minutes)
Azimuth
Elevation
Range (km)
Doppler Factor

Next 0 passes for location: London (51.5072 / 0.1276)

Sorry there are no passes over London.